2e Journée d'Automne

Compétition Départementale

CROIX

Le Dimanche 11 Octobre 2015

Bassin de 25m

100 Brasse Dames

Séries

Nom Année Temps Pts Club Pays
1 LAGAE Chloé 1996 1:24:49 973 CN CROIX FRA
2 GUERROUCHE Lina 1999 1:24:62 970 DAUPHINS WATTRELOS FRA
3 NOGE Lisa 1996 1:27:30 911 LILLE UC NATATION FRA
4 PROOT Adéle 2000 1:28:39 888 SO ARMENTIÈRES FRA
5 LEPERS Julia 2001 1:28:78 880 DAUPHINS WATTRELOS FRA
6 MANDL Nina 1990 1:29:98 854 LILLE UC NATATION FRA
7 GEORGES Delphine 2002 1:30:55 843 LILLE UC NATATION FRA
8 GIELEN Ophelie 2001 1:30:83 837 ROUBAIX NATATION FRA
9 DELOBEL Mélaine 1998 1:33:06 792 SO ARMENTIÈRES FRA
10 SAVER Céline 1984 1:33:33 786 CN CROIX FRA
11 BIKARD Jade 2000 1:33:78 777 LILLE UC NATATION FRA
12 JURKIW Clarisse 2000 1:35:67 740 SO ARMENTIÈRES FRA
13 DRIS Souad 2001 1:36:31 728 LILLE UC NATATION FRA
14 MAILLET Juliette 1999 1:37:42 707 CN CROIX FRA
15 DERDOUM Sabrina 2002 1:37:45 706 CN CROIX FRA
16 DUCOULOMBIER Louise 1999 1:37:95 697 CN CROIX FRA
17 MARTIN Solene 2002 1:39:40 670 SO ARMENTIÈRES FRA
18 GOBERT Eleonore 2000 1:39:89 661 DAUPHINS WATTRELOS FRA
19 GERARD Romane 1997 1:40:01 658 ROUBAIX NATATION FRA
20 SAVERYS Mélucine 2001 1:41:34 634 US RONCQ FRA
21 DECOOPMAN-BARRE Karine 1977 1:42:02 622 CN CROIX FRA
22 SPINA Carla 2001 1:42:32 617 CN CROIX FRA
23 BOUMAHDI Ines 2001 1:43:55 595 CN CROIX FRA
24 CHANGEUX Clémence 2001 1:43:71 592 SO ARMENTIÈRES FRA
25 BONNET Tara 2000 1:43:90 589 CN CROIX FRA
26 COUVREUR Clara 2001 1:44:13 585 SO ARMENTIÈRES FRA
27 POLLET Pauline 1999 1:44:63 577 US RONCQ FRA
28 PERCHE Fanny 1999 1:44:85 573 SO ARMENTIÈRES FRA
29 SHEMATSI Muisha 2002 1:46:91 538 ROUBAIX NATATION FRA
30 SALINGUE Catherine 1979 1:50:78 476 CN CROIX FRA
31 HALIMI Celia 2002 1:51:79 461 ROUBAIX NATATION FRA
32 BOUCHE Sergine 2001 1:53:48 435 US RONCQ FRA
33 BARTH Louise 2001 1:56:21 395 SO ARMENTIÈRES FRA
UNION SPORTIVE RONCQUOISE